Location: Barnston
(51.8500°N, 0.4000°E)
Time: 03:31:37
(UTC+00:00)

Cosmos 1536 - Pass Details

Date: 26 September 2023
Orbit: 523 x 546 km, 82.6° (Epoch: 29 November)

Event Time Altitude Azimuth Distance (km) Brightness Sun altitude
Rises 05:02:36 0° 346° (NNW) 2,682 6.3 -8.2°
Reaches altitude 10° 05:04:47 10° 343° (NNW) 1,784 5.3 -7.8°
Maximum altitude 05:08:38 58° 264° (W) 619 2.8 -7.3°
Drops below altitude 10° 05:12:25 10° 185° (S) 1,760 5.3 -6.7°
Sets 05:14:33 0° 181° (S) 2,643 6.2 -6.4°
